WI1SKY Weather Reports


Display with metric or nautical units.
time (UTC)temp
F
wind
direction
speed
MPH
gust
MPH
rain 1hr
in
rain 24hr
in
rain mn
in
humidity
%
barometer
mb
20260906163803 74 107 1.0 6.0 0.00 0.00 0.00 78 1019.4
20260906163302 73 74 1.0 6.0 0.00 0.00 0.00 77 1019.3
20260906162802 73 81 1.0 4.0 0.00 0.00 0.00 80 1019.3
20260906162608 73 80 1.0 5.0 0.00 0.00 0.00 81 1019.3
20260906161802 73 160 1.0 5.0 0.00 0.00 0.00 79 1019.4
20260906161302 72 87 2.0 4.0 0.00 0.00 0.00 80 1019.4
20260906160803 72 78 1.0 3.0 0.00 0.00 0.00 80 1019.4
20260906160436 71 140 1.0 3.0 0.00 0.00 0.00 81 1019.5
20260906160358 72 141 1.0 3.0 0.00 0.00 0.00 83 1019.5
20260906155618 71 105 1.0 4.0 0.00 0.00 0.00 82 1019.5
20260906154803 71 105 2.0 4.0 0.00 0.00 0.00 82 1019.5
20260906154305 71 107 2.0 4.0 0.00 0.00 0.00 82 1019.6
20260906154120 71 101 1.0 4.0 0.00 0.00 0.00 83 1019.4
20260906153303 71 109 1.0 6.0 0.00 0.00 0.00 83 1019.5
20260906153120 70 109 2.0 6.0 0.00 0.00 0.00 85 1019.5
20260906152306 70 103 2.0 6.0 0.00 0.00 0.00 85 1019.4
20260906151946 69 125 1.0 4.0 0.00 0.00 0.00 85 1019.4
20260906151903 70 98 2.0 6.0 0.00 0.00 0.00 85 1019.4
20260906150803 69 68 1.0 6.0 0.00 0.00 0.00 87 1019.4
20260906150304 69 98 2.0 6.0 0.00 0.00 0.00 89 1019.4
20260906150117 69 98 2.0 6.0 0.00 0.00 0.00 89 1019.4
20260906145306 68 72 2.0 6.0 0.00 0.00 0.00 90 1019.2
20260906144804 68 99 1.0 4.0 0.00 0.00 0.00 91 1019.2
20260906144303 67 101 1.0 4.0 0.00 0.00 0.00 91 1019.1
20260906143804 67 105 0.0 0.0 0.00 0.00 0.00 93 1019.1
20260906143303 67 109 0.0 2.0 0.00 0.00 0.00 93 1019.1
20260906142803 67 109 1.0 3.0 0.00 0.00 0.00 93 1019.1
20260906142306 67 109 1.0 3.0 0.00 0.00 0.00 93 1019.1
20260906141803 67 109 2.0 6.0 0.00 0.00 0.00 94 1019.0
20260906141301 67 100 2.0 6.0 0.00 0.00 0.00 94 1019.0
20260906140803 67 103 2.0 6.0 0.00 0.00 0.00 95 1018.9
20260906140302 67 97 1.0 4.0 0.00 0.00 0.00 96 1018.9
20260906135802 67 110 2.0 6.0 0.00 0.00 0.00 96 1019.0
20260906135306 66 96 1.0 6.0 0.00 0.00 0.00 96 1019.1
20260906134803 67 100 0.0 6.0 0.00 0.00 0.00 96 1019.0
20260906134303 66 107 1.0 4.0 0.00 0.00 0.00 96 1019.1
20260906133803 66 103 1.0 4.0 0.00 0.00 0.00 96 1019.1
20260906133613 66 130 1.0 3.0 0.00 0.00 0.00 96 1019.0
20260906132856 66 105 0.0 2.0 0.00 0.00 0.00 96 1019.1
20260906131802 66 105 1.0 3.0 0.00 0.00 0.00 96 1019.3
20260906131303 65 105 1.0 3.0 0.00 0.00 0.00 96 1019.2
20260906130802 65 105 1.0 3.0 0.00 0.00 0.00 96 1019.1
20260906130304 66 117 0.0 0.0 0.00 0.00 0.00 96 1019.1
20260906125804 65 117 0.0 0.0 0.00 0.00 0.00 96 1019.0
20260906125305 65 117 0.0 1.0 0.00 0.00 0.00 96 1019.0
20260906124802 65 117 0.0 2.0 0.00 0.00 0.00 96 1019.0
20260906124302 65 99 0.0 2.0 0.00 0.00 0.00 96 1019.0
20260906123802 65 99 1.0 3.0 0.00 0.00 0.00 96 1019.0
20260906123303 65 99 1.0 3.0 0.00 0.00 0.00 96 1019.0
20260906122804 65 99 1.0 4.0 0.00 0.00 0.00 96 1019.0
20260906122306 65 101 1.0 4.0 0.00 0.00 0.00 96 1019.0
20260906121931 65 99 1.0 3.0 0.00 0.00 0.00 96 1018.8
20260906121853 65 99 0.0 2.0 0.00 0.00 0.00 96 1018.9
20260906120803 65 99 1.0 3.0 0.00 0.00 0.00 96 1018.7
20260906120303 65 96 0.0 3.0 0.00 0.00 0.00 96 1018.6
20260906115803 65 96 0.0 2.0 0.00 0.00 0.00 96 1018.4
20260906115306 65 96 0.0 3.0 0.00 0.00 0.00 96 1018.4
20260906114827 65 96 1.0 3.0 0.00 0.00 0.00 96 1018.2
20260906114442 65 96 0.0 2.0 0.00 0.00 0.00 96 1018.1
20260906112803 65 86 1.0 4.0 0.00 0.00 0.00 96 1017.9
20260906112301 65 71 0.0 2.0 0.00 0.00 0.00 96 1017.9
20260906112111 65 71 0.0 2.0 0.00 0.00 0.00 96 1017.9
20260906111257 65 71 0.0 2.0 0.00 0.00 0.00 96 1017.9
20260906110756 65 71 1.0 2.0 0.00 0.00 0.00 96 1017.9
20260906110254 65 71 2.0 4.0 0.00 0.00 0.00 96 1017.8
20260906105751 65 71 2.0 4.0 0.00 0.00 0.00 96 1017.7
20260906105250 65 81 2.0 3.0 0.00 0.00 0.00 96 1017.9
20260906104751 65 81 2.0 4.0 0.00 0.00 0.00 96 1017.9
20260906104249 65 81 2.0 4.0 0.00 0.00 0.00 96 1017.9
20260906103747 65 91 2.0 4.0 0.00 0.00 0.00 96 1017.8
20260906103244 64 82 3.0 4.0 0.00 0.00 0.00 95 1017.9
20260906102743 64 87 3.0 6.0 0.00 0.00 0.00 95 1017.8
20260906102242 64 89 3.0 6.0 0.00 0.00 0.00 95 1017.7
20260906101741 65 67 3.0 5.0 0.00 0.00 0.00 95 1017.6
20260906101547 65 73 2.0 4.0 0.00 0.00 0.00 95 1017.5
20260906100742 65 97 2.0 4.0 0.00 0.00 0.00 95 1017.4
20260906100556 65 97 2.0 4.0 0.00 0.00 0.00 95 1017.3
20260906095743 65 97 1.0 4.0 0.00 0.00 0.00 95 1017.2
20260906095240 65 95 1.0 3.0 0.00 0.00 0.00 95 1017.0
20260906095047 65 94 1.0 3.0 0.00 0.00 0.00 95 1017.0
20260906094243 65 94 0.0 2.0 0.00 0.00 0.00 95 1017.1
20260906093741 65 94 0.0 1.0 0.00 0.00 0.00 95 1017.1
20260906093241 65 94 0.0 3.0 0.00 0.00 0.00 95 1017.1
20260906092737 65 94 1.0 4.0 0.00 0.00 0.00 95 1017.2
20260906092533 65 94 2.0 4.0 0.00 0.00 0.00 95 1017.1
20260906092043 65 94 2.0 4.0 0.00 0.00 0.00 95 1017.1
20260906091233 65 103 2.0 5.0 0.00 0.00 0.00 95 1017.0
20260906090732 65 70 2.0 4.0 0.00 0.00 0.00 95 1017.2
20260906090233 65 71 2.0 5.0 0.00 0.00 0.00 95 1017.3
20260906085730 65 71 2.0 5.0 0.00 0.00 0.00 95 1017.4
20260906085229 65 91 2.0 4.0 0.00 0.00 0.00 95 1017.4
20260906084731 65 92 2.0 4.0 0.00 0.00 0.00 95 1017.4
20260906084228 65 101 1.0 4.0 0.00 0.00 0.00 94 1017.4
20260906083725 65 90 0.0 3.0 0.00 0.00 0.00 94 1017.4
20260906083223 65 90 0.0 3.0 0.00 0.00 0.00 94 1017.4
20260906082722 65 90 0.0 3.0 0.00 0.00 0.00 94 1017.4
20260906082222 65 77 0.0 0.0 0.00 0.00 0.00 94 1017.4
20260906081722 65 77 0.0 0.0 0.00 0.00 0.00 94 1017.4
20260906081219 65 77 0.0 0.0 0.00 0.00 0.00 94 1017.6
20260906080717 66 77 0.0 0.0 0.00 0.00 0.00 94 1017.6
20260906080216 66 77 0.0 0.0 0.00 0.00 0.00 94 1017.5
20260906075716 66 77 0.0 0.0 0.00 0.00 0.00 94 1017.6
20260906075215 66 77 0.0 0.0 0.00 0.00 0.00 94 1017.6
20260906074713 66 77 0.0 0.0 0.00 0.00 0.00 94 1017.6
20260906074214 66 77 0.0 0.0 0.00 0.00 0.00 94 1017.5
20260906073714 66 77 0.0 0.0 0.00 0.00 0.00 94 1017.4
20260906073214 66 77 0.0 0.0 0.00 0.00 0.00 94 1017.4
20260906072713 66 77 0.0 2.0 0.00 0.00 0.00 94 1017.3
20260906072213 66 77 0.0 2.0 0.00 0.00 0.00 93 1017.4
20260906072022 67 77 0.0 2.0 0.00 0.00 0.00 93 1017.5
20260906071213 67 77 1.0 3.0 0.00 0.00 0.00 94 1017.6
20260906070711 67 77 2.0 4.0 0.00 0.00 0.00 94 1017.6
20260906070212 67 77 2.0 5.0 0.00 0.00 0.00 94 1017.7
20260906070019 67 77 2.0 5.0 0.00 0.00 0.00 94 1017.7
20260906065212 67 77 3.0 5.0 0.00 0.00 0.00 94 1017.7
20260906065014 67 77 3.0 5.0 0.00 0.00 0.00 94 1017.8
20260906064209 67 88 3.0 5.0 0.00 0.00 0.00 94 1017.8
20260906063710 67 80 2.0 5.0 0.00 0.00 0.00 94 1017.8
20260906063210 67 74 2.0 4.0 0.00 0.00 0.00 94 1018.0
20260906062709 67 74 1.0 4.0 0.00 0.00 0.00 94 1017.8
20260906062206 67 102 0.0 0.0 0.00 0.00 0.00 93 1017.8
20260906061707 67 102 0.0 0.0 0.00 0.00 0.00 92 1017.7
20260906061323 67 102 0.0 0.0 0.00 0.00 0.00 93 1017.6
20260906061258 67 102 0.0 0.0 0.00 0.00 0.00 93 1017.7
20260906060504 67 102 0.0 0.0 0.00 0.00 0.00 93 1017.6
20260906055702 68 102 0.0 0.0 0.00 0.00 0.00 93 1017.5
20260906055203 68 102 0.0 0.0 0.00 0.00 0.00 93 1017.5
20260906055001 67 102 0.0 0.0 0.00 0.00 0.00 93 1017.4
20260906054313 68 102 0.0 0.0 0.00 0.00 0.00 92 1017.4
20260906054250 67 102 0.0 0.0 0.00 0.00 0.00 92 1017.5
20260906053501 68 102 0.0 0.0 0.00 0.00 0.00 92 1017.4
20260906052702 68 102 0.0 0.0 0.00 0.00 0.00 92 1017.5
20260906052202 68 102 0.0 0.0 0.00 0.00 0.00 93 1017.4
20260906051958 68 102 0.0 0.0 0.00 0.00 0.00 93 1017.4
20260906051201 68 102 0.0 1.0 0.00 0.00 0.00 92 1017.4
20260906050701 68 102 1.0 3.0 0.00 0.00 0.00 92 1017.4
20260906050205 68 102 0.0 3.0 0.00 0.00 0.00 92 1017.3
20260906045827 69 74 0.0 0.0 0.00 0.00 0.00 92 1017.3
20260906045754 68 74 0.0 0.0 0.00 0.00 0.00 92 1017.3
20260906044703 69 74 0.0 0.0 0.00 0.00 0.00 92 1017.4
20260906044203 69 74 0.0 0.0 0.00 0.00 0.00 92 1017.5
20260906043703 69 74 0.0 0.0 0.00 0.00 0.00 91 1017.6
20260906043204 69 74 0.0 0.0 0.00 0.00 0.00 91 1017.6
20260906042705 69 74 0.0 0.0 0.00 0.00 0.00 91 1017.7
20260906042204 69 74 0.0 0.0 0.00 0.00 0.00 91 1017.7
20260906041704 69 74 0.0 0.0 0.00 0.00 0.00 90 1017.7
20260906041204 70 74 0.0 0.0 0.00 0.00 0.00 90 1017.7
20260906040703 70 74 0.0 0.0 0.00 0.00 0.00 90 1017.6
20260906040516 70 74 0.0 0.0 0.00 0.00 0.00 90 1017.5
20260906035703 70 74 0.0 1.0 0.00 0.00 0.00 90 1017.4
20260906035455 70 74 0.0 1.0 0.00 0.00 0.00 90 1017.3
20260906034704 70 74 0.0 1.0 0.00 0.00 0.00 90 1017.3
20260906034204 71 74 1.0 3.0 0.00 0.00 0.00 90 1017.3
20260906033704 71 74 2.0 3.0 0.00 0.00 0.00 90 1017.1
20260906033205 71 74 2.0 4.0 0.00 0.00 0.00 90 1017.0
20260906032704 71 74 2.0 4.0 0.00 0.00 0.00 89 1016.9
20260906032203 71 74 2.0 5.0 0.00 0.00 0.00 89 1016.9
20260906031703 71 76 2.0 5.0 0.00 0.00 0.00 89 1016.8
20260906031203 71 86 2.0 3.0 0.00 0.00 0.00 89 1016.8
20260906030703 71 86 2.0 4.0 0.00 0.00 0.00 89 1016.7
20260906030513 71 86 2.0 4.0 0.00 0.00 0.00 89 1016.6
20260906030014 71 92 1.0 4.0 0.00 0.00 0.00 89 1016.5
20260906025204 71 92 1.0 3.0 0.00 0.00 0.00 89 1016.4
20260906024702 71 96 1.0 4.0 0.00 0.00 0.00 89 1016.3
20260906024203 71 96 2.0 4.0 0.00 0.00 0.00 89 1016.3
20260906023702 71 84 2.0 3.0 0.00 0.00 0.00 89 1016.2
20260906023202 72 94 2.0 3.0 0.00 0.00 0.00 88 1016.3
20260906022701 72 101 1.0 2.0 0.00 0.00 0.00 88 1016.3
20260906022202 72 101 1.0 3.0 0.00 0.00 0.00 88 1016.2
20260906021702 72 101 2.0 3.0 0.00 0.00 0.00 87 1016.2
20260906021202 72 101 1.0 3.0 0.00 0.00 0.00 87 1016.1
20260906020702 73 101 1.0 3.0 0.00 0.00 0.00 86 1016.0
20260906020202 73 101 2.0 4.0 0.00 0.00 0.00 86 1016.0
20260906015703 73 101 1.0 4.0 0.00 0.00 0.00 85 1015.9
20260906015202 73 69 1.0 4.0 0.00 0.00 0.00 85 1015.8
20260906014702 73 69 2.0 7.0 0.00 0.00 0.00 85 1015.6
20260906014202 73 99 2.0 7.0 0.00 0.00 0.00 85 1015.4
20260906013703 73 93 2.0 4.0 0.00 0.00 0.00 85 1015.4
20260906013203 74 92 2.0 4.0 0.00 0.00 0.00 84 1015.4
20260906012702 74 92 2.0 4.0 0.00 0.00 0.00 84 1015.2
20260906012203 74 82 2.0 8.0 0.00 0.00 0.00 84 1015.0
20260906011702 74 104 2.0 8.0 0.00 0.00 0.00 83 1015.0
20260906011202 74 91 1.0 4.0 0.00 0.00 0.00 83 1014.9
20260906010702 74 98 2.0 4.0 0.00 0.00 0.00 83 1014.9
20260906010512 74 103 2.0 4.0 0.00 0.00 0.00 82 1014.7
20260906005705 74 107 1.0 4.0 0.00 0.00 0.00 82 1014.7
20260906005204 74 63 1.0 3.0 0.00 0.00 0.00 82 1014.7
20260906004812 75 63 1.0 3.0 0.00 0.00 0.00 82 1014.6
20260906004748 75 63 1.0 3.0 0.00 0.00 0.00 82 1014.6
20260906003702 75 77 1.0 3.0 0.00 0.00 0.00 82 1014.6
20260906003507 75 78 1.0 3.0 0.00 0.00 0.00 82 1014.6
20260906002703 75 78 1.0 3.0 0.00 0.00 0.00 82 1014.5
20260906002203 75 64 1.0 3.0 0.00 0.00 0.00 82 1014.5
20260906001700 75 69 1.0 4.0 0.00 0.00 0.00 83 1014.5
20260906001512 75 69 1.0 4.0 0.00 0.00 0.00 83 1014.5
20260906001015 75 69 1.0 3.0 0.00 0.00 0.00 84 1014.5
20260906000159 76 31 0.0 3.0 0.00 0.00 0.00 84 1014.7
20260905235656 76 30 0.0 0.0 0.00 0.00 0.00 83 1014.7
20260905235156 76 17 0.0 0.0 0.00 0.00 0.00 83 1014.7
20260905234657 76 17 0.0 0.0 0.00 0.00 0.00 83 1014.7
20260905234506 76 17 0.0 2.0 0.00 0.00 0.00 82 1014.7
20260905234109 76 17 1.0 3.0 0.00 0.00 0.00 82 1014.8
20260905234055 76 17 1.0 3.0 0.00 0.00 0.00 82 1014.7
20260905232650 76 341 0.0 0.0 0.00 0.00 0.00 83 1014.8
20260905232149 76 341 0.0 0.0 0.00 0.00 0.00 82 1015.0
20260905231650 77 341 0.0 0.0 0.00 0.00 0.00 82 1015.0
20260905231151 77 341 0.0 0.0 0.00 0.00 0.00 82 1015.1
20260905230953 77 341 0.0 0.0 0.00 0.00 0.00 81 1015.1
20260905230146 77 341 0.0 0.0 0.00 0.00 0.00 81 1015.1
20260905225645 77 341 0.0 0.0 0.00 0.00 0.00 81 1015.1
20260905225143 78 341 0.0 0.0 0.00 0.00 0.00 82 1015.1
20260905224944 78 341 0.0 0.0 0.00 0.00 0.00 82 1015.1
20260905224139 78 341 0.0 0.0 0.00 0.00 0.00 82 1015.0
20260905223640 78 341 0.0 0.0 0.00 0.00 0.00 80 1015.1
20260905223443 78 341 0.0 0.0 0.00 0.00 0.00 80 1015.2
20260905222944 78 341 0.0 0.0 0.00 0.00 0.00 79 1015.2
20260905222141 78 341 0.0 0.0 0.00 0.00 0.00 79 1015.1
20260905221639 78 341 0.0 0.0 0.00 0.00 0.00 79 1015.2
20260905221144 78 341 0.0 0.0 0.00 0.00 0.00 78 1015.1
20260905220639 79 341 0.0 0.0 0.00 0.00 0.00 77 1015.2
20260905220136 79 341 0.0 0.0 0.00 0.00 0.00 75 1015.2
20260905215638 79 341 0.0 0.0 0.00 0.00 0.00 76 1015.2
20260905215137 79 341 0.0 2.0 0.00 0.00 0.00 75 1015.2
20260905214635 79 341 1.0 2.0 0.00 0.00 0.00 76 1015.3
20260905214134 79 341 1.0 2.0 0.00 0.00 0.00 77 1015.4
20260905213633 79 341 1.0 2.0 0.00 0.00 0.00 78 1015.5
20260905213131 79 341 2.0 3.0 0.00 0.00 0.00 77 1015.5
20260905212631 79 341 2.0 3.0 0.00 0.00 0.00 78 1015.6
20260905212130 78 22 1.0 3.0 0.00 0.00 0.00 78 1015.7
20260905211631 78 35 1.0 4.0 0.00 0.00 0.00 78 1015.7
20260905211131 78 0 1.0 4.0 0.00 0.00 0.00 78 1015.6
20260905210631 78 37 0.0 2.0 0.00 0.00 0.00 78 1015.5
20260905210130 78 36 0.0 0.0 0.00 0.00 0.00 78 1015.5
20260905205630 78 36 0.0 3.0 0.00 0.00 0.00 80 1015.5
20260905205436 78 36 1.0 3.0 0.00 0.00 0.00 79 1015.6
20260905204631 77 36 1.0 3.0 0.00 0.00 0.00 81 1015.8
20260905204130 77 37 0.0 3.0 0.00 0.00 0.00 82 1015.8
20260905203634 77 85 0.0 0.0 0.00 0.00 0.00 82 1015.9
20260905203127 77 85 0.0 0.0 0.00 0.00 0.00 81 1015.9
20260905202622 77 85 0.0 4.0 0.00 0.00 0.00 83 1015.8
20260905202117 77 85 0.0 4.0 0.00 0.00 0.00 81 1015.8
20260905201617 76 85 1.0 4.0 0.00 0.00 0.00 82 1015.8
20260905201118 76 85 2.0 4.0 0.00 0.00 0.00 82 1015.6
20260905200622 76 92 2.0 4.0 0.00 0.00 0.00 82 1015.7
20260905200117 76 100 1.0 6.0 0.00 0.00 0.00 82 1015.8
20260905195618 77 101 0.0 6.0 0.00 0.00 0.00 82 1015.9
20260905195116 77 5 0.0 0.0 0.00 0.00 0.00 81 1015.9
20260905194616 77 5 0.0 0.0 0.00 0.00 0.00 82 1016.0
20260905194116 76 5 0.0 0.0 0.00 0.00 0.00 82 1016.0
20260905193615 76 5 0.0 0.0 0.00 0.00 0.00 83 1016.0
20260905193112 76 5 0.0 0.0 0.00 0.00 0.00 82 1016.0
20260905192734 76 38 0.0 3.0 0.00 0.00 0.00 83 1016.2
20260905192704 76 0 0.0 0.0 0.00 0.00 0.00 83 1016.1
20260905191609 76 38 1.0 3.0 0.00 0.00 0.00 83 1016.1
20260905191109 76 38 2.0 4.0 0.00 0.00 0.00 84 1016.0
20260905190610 76 68 2.0 5.0 0.00 0.00 0.00 84 1015.9
20260905190109 76 75 2.0 5.0 0.00 0.00 0.00 84 1015.9
20260905185608 76 63 2.0 5.0 0.00 0.00 0.00 85 1016.0
20260905185108 76 62 3.0 6.0 0.00 0.00 0.00 85 1016.0
20260905184607 76 28 3.0 6.0 0.00 0.00 0.00 86 1016.0
20260905184411 76 129 3.0 7.0 0.00 0.00 0.00 86 1015.9
20260905183904 76 50 4.0 9.0 0.00 0.00 0.00 86 1016.0
20260905183105 75 76 4.0 9.0 0.00 0.00 0.00 85 1016.1
20260905182607 75 79 4.0 8.0 0.00 0.00 0.00 85 1016.1
20260905182105 75 84 4.0 8.0 0.00 0.00 0.00 85 1016.2
20260905181605 75 88 4.0 8.0 0.00 0.00 0.00 85 1016.2
20260905181109 75 66 4.0 8.0 0.00 0.00 0.00 84 1016.1
20260905180609 75 74 3.0 8.0 0.00 0.00 0.00 85 1016.2
20260905180108 75 70 4.0 8.0 0.00 0.00 0.00 84 1016.3
20260905175608 76 76 4.0 8.0 0.00 0.00 0.00 84 1016.3
20260905175107 76 84 3.0 8.0 0.00 0.00 0.00 84 1016.3
20260905174609 76 85 4.0 8.0 0.00 0.00 0.00 85 1016.4
20260905174107 76 101 3.0 7.0 0.00 0.00 0.00 84 1016.4
20260905173917 76 80 2.0 7.0 0.00 0.00 0.00 86 1016.3
20260905173103 76 94 3.0 6.0 0.00 0.00 0.00 87 1016.4
20260905172603 75 75 3.0 6.0 0.00 0.00 0.00 86 1016.4
20260905172103 75 86 2.0 6.0 0.00 0.00 0.00 87 1016.4
20260905171602 75 87 3.0 7.0 0.00 0.00 0.00 87 1016.4
20260905171405 75 76 3.0 8.0 0.00 0.00 0.00 86 1016.4
20260905170603 75 77 3.0 8.0 0.00 0.00 0.00 87 1016.4
20260905170406 75 90 2.0 7.0 0.00 0.00 0.00 87 1016.5
20260905165602 75 94 3.0 7.0 0.00 0.00 0.00 87 1016.4
20260905165101 75 75 3.0 7.0 0.00 0.00 0.00 86 1016.4
20260905164909 75 71 2.0 7.0 0.00 0.00 0.00 88 1016.4
20260905164408 75 82 2.0 6.0 0.00 0.00 0.00 88 1016.4